Flag for Germany Weather past 2 weeks in Greifswald, Mecklenburg-Western Pomerania, Germany

Now
47 °F

Overcast.


Feels Like: 47 °F
Forecast: 43 / 51 °F
Wind: 2 mph from Northwest

Location: Greifswald

Current Time: Apr 27, 2015 at 6:44:05 AM

Latest Report: Apr 27, 2015 at 4:00 AM


Visibility: 5 mi

Pressure: 29.69 "Hg

Humidity: 95%

Dew point: 45 °F

Location of GreifswaldLocation

Historic Weather in Greifswald — Graph

°F

Greifswald temperature yesterday

Maximum temperature yesterday: 62 °F (at 4:00 PM)
Minimum temperature yesterday: 51 °F (at 10:00 PM)
Average temperature yesterday: 55 °F

Past Weeks' High & Low Weather Summary

 TemperatureHumidityPressure
High69 °F (Apr 15, 4:00 PM)100% (Apr 25, 3:00 AM)30.33 "Hg (Apr 25, 3:00 AM)
Low35 °F (Apr 18, 6:00 AM)37% (Apr 12, 3:00 PM)29.68 "Hg (Apr 26, 7:00 PM)
Average49 °F71%30.06 "Hg
* Reported Apr 12 4:00 AM — Apr 27 4:00 AM, Greifswald, Weather by CustomWeather, © 2015

Note: Actual official high and low records may vary slightly from our data, if they occured in-between our weather recording intervals... More about our weather records

Advertising

Greifswald weather history for previous 24 hours

 ConditionsComfort  
Time TempWeatherWind HumidityBarometerVisibility
4:00 AM
Mon, Apr 27
47 °FOvercast.2 mph95%29.69 "Hg5 mi
3:00 AM47 °FFog.2 mph95%29.70 "Hg4 mi
2:00 AM47 °FFog.2 mph96%29.70 "Hg4 mi
1:00 AM47 °FFog.2 mph97%29.71 "Hg2 mi
12:00 AM48 °FFog.2 mph98%29.70 "Hg2 mi
10:00 PM
Sun, Apr 26
51 °FThunderstorms. Passing clouds.1 mph96%29.69 "Hg2 mi
9:00 PM52 °FThundershowers. Overcast.3 mph92%29.69 "Hg3 mi
8:00 PM56 °FOvercast.1 mph85%29.68 "Hg7 mi
7:00 PM58 °FOvercast.1 mph79%29.68 "Hg9 mi
6:00 PM60 °FSprinkles. Overcast.2 mph66%29.69 "Hg4 mi
4:00 PM62 °FPartly sunny.3 mph61%29.70 "Hg22 mi
3:00 PM60 °FOvercast.3 mph64%29.72 "Hg22 mi
2:00 PM60 °FOvercast.3 mph64%29.72 "Hg14 mi
1:00 PM59 °FOvercast.3 mph65%29.73 "Hg16 mi
12:00 PM58 °FOvercast.3 mph69%29.74 "Hg19 mi
10:00 AM55 °FOvercast.2 mph78%29.75 "Hg14 mi
9:00 AM54 °FOvercast.3 mph83%29.74 "Hg11 mi
8:00 AM53 °FFog.2 mph91%29.74 "Hg3 mi
7:00 AM52 °FLow clouds.2 mph93%29.72 "Hg3 mi
6:00 AM52 °FOvercast.2 mph94%29.71 "Hg2 mi
Weather by CustomWeather, © 2015

See weather overviewHow to use our weather pages